Location: Chircca
(13.7944°S, 72.0608°W)
Time: 06:31:32
(UTC+00:00)

CZ-4B DEB - Pass Details

Date: 14 July 2020
Orbit: 840 x 862 km, 99.1° (Epoch: 14 August)

Event Time Altitude Azimuth Distance (km) Brightness Sun altitude
Rises 09:57:54 0° 10° (N) 3,379 7.7 -17.9°
Reaches altitude 10° 10:00:15 10° 9° (N) 2,451 7.0 -17.4°
Maximum altitude 10:05:40 78° 283° (WNW) 869 4.1 -16.1°
Drops below altitude 10° 10:11:12 10° 196° (SSW) 2,486 6.3 -14.8°
Enters shadow 10:13:31 - 195° (SSW) 3,399 7.0 -14.3°
